Location: Hillern
(53.0557°N, 9.8577°E)
Time: 18:02:43
(UTC+00:00)

Daily predictions for brighter satellites

Satellite Brightness Start Highest point End
(mag) Time Altitude Azimuth Time Altitude Azimuth Time Altitude Azimuth
Cosmos 2154 Rocket 4.2 19:50:56 10° NNW 19:57:10 80° W 20:03:22 10° S
Nadezhda 1 Rocket 4.1 19:51:26 10° S 19:57:26 63° E 20:03:32 10° NNE
Cosmos 2341 Rocket 4.5 19:53:32 10° N 19:59:36 48° ENE 20:05:35 10° SE
Cosmos 2184 Rocket 4.4 19:53:57 10° NNW 20:00:09 68° W 20:06:23 10° S
SeaSat 1 3.5 19:58:13 10° ESE 20:02:41 37° NE 20:07:12 10° NNW
Cosmos 2082 Rocket 4.1 20:02:20 10° ESE 20:03:46 11° E 20:05:12 10° E
Cosmos 1933 3.2 20:00:18 10° S 20:04:09 73° E 20:08:01 10° NNE
Okean O Rocket 2.2 20:00:00 10° S 20:04:17 56° W 20:08:35 10° NNW
Cosmos 2221 4.3 20:02:05 10° ESE 20:04:27 15° E 20:06:48 10° NE
Iridium 4 Rocket 3.6 19:59:47 10° N 20:04:50 87° W 20:10:18 10° S
SPOT 3 Rocket 3.9 20:03:44 10° SE 20:08:44 54° ENE 20:13:44 10° N
Okean-O 3.0 20:05:25 10° S 20:09:47 67° WSW 20:14:11 10° NNW
ERS-1 Rocket 3.3 20:06:52 10° S 20:11:52 68° WSW 20:16:54 10° NNW
Cosmos 1743 3.0 20:13:20 10° NNW 20:16:42 56° W 20:20:03 10° S
NOSS 2-3 (C) 4.5 20:13:43 10° WSW 20:17:12 47° NNW 20:21:18 10° NE
ISS -3.6 20:16:24 10° W 20:19:42 58° SSW 20:23:01 10° ESE
BREEZE-M R/B 4.5 19:58:59 10° W 20:22:03 69° SSW 20:26:56 10° ESE
Lacrosse 4 Rocket 3.5 20:18:55 10° WSW 20:22:28 31° NW 20:26:07 10° NNE
Spot 2 Rocket 3.6 20:18:36 10° SSE 20:23:37 84° WSW 20:28:42 10° NNW
ARIANE 6 FM1 Upper Stage 2.6 20:20:30 10° SSW 20:24:24 55° SE 20:28:23 10° NE
NOSS 3-1 (C) 3.6 20:20:16 10° S 20:24:39 36° ESE 20:29:50 10° NE
Cosmos 2333 Rocket 4.3 20:21:44 10° NNW 20:25:56 20° NNE 20:30:05 10° ENE
IKONOS-2 4.5 20:22:23 10° NNE 20:26:29 65° ESE 20:30:35 10° S
Cosmos 1833 Rocket 2.8 20:25:22 10° SSW 20:30:54 60° ESE 20:36:28 10° NE
Cosmos 1356 Rocket 4.0 20:28:52 10° SSE 20:32:41 38° E 20:36:30 10° NNE
Cosmos 1733 2.6 20:29:57 10° NNW 20:33:03 83° W 20:36:07 10° S
Cosmos 1821 Rocket 4.4 20:29:06 10° N 20:35:01 47° ENE 20:40:29 12° SE
Cosmos 158 Rocket 4.0 20:34:28 10° SSW 20:39:48 83° ESE 20:45:13 10° NNE
Cosmos 2218 Rocket 4.1 20:33:29 10° N 20:39:54 73° ENE 20:46:01 11° SSE
USA 245 4.2 20:35:50 10° S 20:40:02 63° W 20:45:16 10° NNW
Cosmos 2058 Rocket 3.7 20:40:25 10° SSW 20:44:49 58° WNW 20:49:14 10° N
Helios 1A 4.1 20:42:57 10° N 20:46:49 44° WNW 20:50:40 10° SW
Cosmos 1805 3.9 20:45:05 10° N 20:48:18 34° ENE 20:50:42 15° SE
SWARM A 4.4 20:48:25 14° SSE 20:51:12 56° E 20:54:32 10° N
PSLV R/B 3.7 20:49:41 12° S 20:52:36 59° WSW 20:55:51 10° NNW
Cosmos 1980 Rocket 2.2 20:47:01 10° NNW 20:52:40 82° ENE 20:57:27 15° SE
Cosmos 1812 Rocket 3.7 20:48:57 11° S 20:52:56 54° E 20:57:10 10° NNE
NOSS 3-1 (A) 3.9 20:50:28 11° S 20:54:24 27° ESE 20:59:08 10° ENE
USA 234 3.2 20:49:33 10° ENE 20:56:04 65° SE 21:02:33 10° SW
Terra 3.3 20:51:53 10° SSW 20:56:06 32° W 21:00:21 10° NNW
ATLAS CENTAUR R/B 1.1 20:52:34 10° SW 20:56:18 84° NW 21:00:10 10° NE
Cosmos 1315 Rocket 3.1 20:55:12 14° SSE 20:58:20 47° E 21:02:06 10° NNE
BREEZE-M DEB (TANK) 4.4 20:38:53 10° W 20:59:35 72° S 21:04:42 10° ESE
Meteor 1-26 Rocket 4.4 20:55:38 10° SSW 21:01:32 88° WNW 21:07:36 10° NNE
Cosmos 2208 Rocket 4.2 20:56:16 10° S 21:01:32 58° ESE 21:06:46 10° NNE
SL-16 R/B 3.4 20:58:27 10° NNW 21:03:38 35° NE 21:08:48 10° ESE
Cosmos 2181 Rocket 4.1 20:58:43 10° S 21:04:55 67° E 21:11:16 10° NNE
DELTA 2 DEB (DPAF) 4.4 21:02:48 10° NNE 21:06:32 38° E 21:09:02 18° SSE
Meteor 1-11 Rocket 4.2 21:01:22 10° N 21:06:43 48° ENE 21:10:57 16° SE
Genesis I 4.4 21:04:54 10° NNW 21:07:13 23° NNE 21:09:31 10° E
BlueWalker 3 3.0 21:05:14 10° W 21:08:23 28° SW 21:10:12 18° S
SL-24 R/B 4.2 21:04:39 10° NNE 21:08:56 61° ESE 21:12:50 13° S
Meteor 2-10 4.3 21:03:23 10° NNW 21:09:07 79° W 21:13:58 14° S
Cosmos 2322 Rocket 3.8 21:07:33 10° NNW 21:12:27 28° NE 21:17:18 10° E
Cosmos 1975 4.3 21:10:26 10° NNE 21:13:22 22° ENE 21:15:35 14° ESE
Cosmos 2366 rocket 4.3 21:08:47 10° NNW 21:15:06 67° W 21:21:09 11° S
CZ-4C R/B 4.2 21:15:02 10° NE 21:18:14 27° E 21:19:42 20° SE
SL-24 DEB 4.4 21:14:17 13° S 21:18:16 70° W 21:22:50 10° N
Meteor 1-14 Rocket 4.2 21:13:38 10° NNW 21:19:16 87° WSW 21:23:50 17° S
Ariane Rocket 3.8 21:16:59 11° S 21:21:43 46° W 21:26:36 10° NNW
Cosmos 2298 Rocket 4.3 21:18:41 10° NNW 21:23:58 62° WSW 21:27:57 17° S
Cosmos 1697 Rocket 3.9 21:19:31 10° NW 21:24:33 34° WSW 21:29:17 11° SSW
Cosmos 1238 Rocket 2.4 21:22:13 16° S 21:25:06 87° W 21:28:22 10° N
Lacrosse 5 rocket 3.1 21:23:11 10° W 21:25:12 15° SW 21:26:34 12° SSW
Nadezhda 3 Rocket 4.3 21:21:58 17° SSE 21:26:34 51° E 21:32:35 10° NNE
ARIANE 5 R/B 3.5 21:23:51 17° SE 21:26:45 38° ENE 21:30:49 10° N
Cosmos 1570 Rocket 4.3 21:22:47 10° SSW 21:28:01 73° WNW 21:33:20 10° NNE
Cosmos 1766 4.3 21:26:50 10° N 21:29:52 27° ENE 21:31:35 18° ESE
Cosmos 2278 4.4 21:24:33 10° NNW 21:30:01 47° NE 21:34:48 13° ESE
Cosmos 1934 Rocket 4.5 21:24:54 10° N 21:30:58 50° ENE 21:35:32 18° SE
CENTAUR R/B 3.8 21:24:16 10° NW 21:31:41 53° NNE 21:40:28 10° ESE
Cosmos 2360 Rocket 3.6 21:27:13 10° NNW 21:32:14 31° NE 21:37:12 10° ESE
ATLAS 3B R/B 3.9 21:30:06 18° SSE 21:34:02 27° ESE 21:40:17 10° ENE
Cosmos 1536 2.8 21:31:21 10° NNW 21:35:11 70° W 21:37:32 22° S
Meteor 2-6 Rocket 4.3 21:30:19 10° SSW 21:36:06 86° W 21:41:51 10° NNE
Cosmos 2369 3.7 21:31:53 10° NW 21:37:35 76° WSW 21:41:29 21° SSE
SeaSat 1 2.9 21:36:40 19° S 21:39:59 51° WSW 21:44:47 10° NW
Cosmos 405 Rocket 2.7 21:36:41 10° N 21:40:05 53° ENE 21:41:39 27° SE
Cosmos 2221 2.6 21:37:29 14° SSW 21:41:01 71° WNW 21:45:12 10° N
CZ-2C R/B 4.5 21:37:40 10° NNE 21:41:41 34° E 21:43:42 22° SE
Okean 1 3.5 21:42:37 15° SSW 21:45:33 59° WNW 21:49:12 10° N
Cosmos 2082 Rocket 2.3 21:42:05 15° S 21:46:37 59° ESE 21:52:09 10° NE
Cosmos 1674 1.1 21:48:35 61° SSW 21:48:53 83° W 21:51:05 10° N
ISS -2.3 21:53:24 10° W 21:56:05 22° SSW 21:56:12 22° SSW
Okean 3 Rocket 3.7 21:52:20 10° N 21:56:44 66° ENE 21:59:09 26° SSE
COBE Rocket 4.0 21:52:04 10° NNE 21:57:12 84° ESE 22:00:56 19° SSW
Cosmos 773 Rocket 4.2 21:52:13 10° SSW 21:57:20 72° WNW 22:02:29 10° NNE
Landsat 5 4.3 21:54:37 10° NNE 21:58:28 35° E 22:00:11 25° SE
Meteor 1-10 Rocket 4.3 21:54:20 18° S 21:58:50 82° E 22:04:41 10° NNE
Cosmos 1766 Rocket 3.9 21:55:14 10° NNW 21:59:36 60° W 22:02:12 23° S
Cosmos 220 Rocket 4.0 21:57:21 13° SSW 22:00:57 71° WNW 22:05:02 10° NNE
Cosmos 2084 Rocket 3.6 21:56:54 10° SW 22:01:11 74° NW 22:05:25 10° NE
COSMOS 2406 3.5 21:59:10 21° S 22:02:46 51° ESE 22:08:17 10° NE
ARIANE 6 FM1 Upper Stage 4.2 21:59:56 10° W 22:03:43 38° NNW 22:07:33 10° NE
Cosmos 1842 4.5 22:02:54 20° ESE 22:03:46 23° E 22:06:33 10° NE
USA 59 Rocket -0.2 22:10:24 36° SE 22:10:28 36° SE 22:13:14 10° ENE
Cosmos 2333 Rocket 2.7 22:05:48 10° NNW 22:11:30 57° NE 22:15:54 17° SE
MetOp-A 4.0 22:10:43 25° S 22:13:47 78° WSW 22:19:00 10° NNW
NOSS 3-1 (C) 3.8 22:10:02 10° WSW 22:15:02 59° NNW 22:21:17 10° NE
Cosmos 1833 Rocket 4.3 22:09:59 10° WSW 22:15:09 35° NW 22:20:20 10° NNE
Cosmos 1300 4.4 22:14:11 10° NNE 22:16:28 18° ENE 22:17:48 15° E
Cosmos 1151 Rocket 4.1 22:19:28 23° SE 22:21:05 30° E 22:24:46 10° NNE
NOSS 2-1 (E) 3.2 22:21:20 39° SE 22:21:34 39° SE 22:24:27 10° ENE
ALOS 2 2.8 22:19:44 27° SE 22:22:02 66° ENE 22:26:24 10° N
PKM 3.6 22:20:01 10° WSW 22:22:50 89° SSE 22:27:58 10° ENE
Meteor 2-13 Rocket 4.4 22:19:05 22° S 22:23:12 81° E 22:29:21 10° NNE
Cosmos 2219 Rocket 3.3 22:21:57 10° NNW 22:27:17 41° NE 22:32:34 10° ESE
ATLAS CENTAUR R/B 3.8 22:29:53 10° WNW 22:32:58 23° NNW 22:36:06 10° NNE
Meteor 2-4 Rocket 3.9 22:30:51 26° S 22:34:04 63° E 22:39:51 10° NNE
Meteor 1-27 Rocket 3.7 22:30:54 22° SSW 22:34:38 83° WNW 22:40:12 10° NNE
Cosmos 1980 Rocket 3.9 22:31:56 10° NW 22:36:00 21° WSW 22:39:12 13° SW
Sich 1 2.9 22:32:15 10° NNW 22:36:32 86° W 22:38:23 33° S
NOSS 2-1 (D) 2.6 22:36:14 43° SSW 22:37:04 65° SE 22:40:02 10° NE
USA 234 3.5 22:32:42 10° ENE 22:39:13 73° NNW 22:45:43 10° W
Genesis I 3.0 22:37:57 10° WNW 22:40:24 39° WSW 22:40:24 39° WSW
NOSS 3-1 (A) 3.4 22:39:31 10° WSW 22:44:32 71° NW 22:50:48 10° NE
PSLV R/B 4.0 22:41:19 10° NNE 22:45:21 44° E 22:46:52 31° SSE
Cosmos 2056 Rocket 4.2 22:41:48 10° NNW 22:47:02 51° ENE 22:50:55 17° SE
SL-16 R/B 2.4 22:42:29 10° NW 22:48:05 61° WSW 22:51:04 28° S
Cosmos 1975 3.6 22:45:26 10° NNW 22:48:52 37° W 22:50:13 27° SW
Cosmos 1500 Rocket 3.6 22:47:16 10° NNW 22:51:37 74° W 22:53:33 33° S
Cosmos 1707 2.2 22:51:13 46° S 22:52:07 83° E 22:55:30 10° NNE
H-2A R/B 4.3 22:50:24 11° ESE 22:53:17 22° ENE 22:56:17 10° N
Cosmos 1538 Rocket 3.9 22:50:41 26° SSW 22:53:36 78° ESE 22:58:46 10° NNE
NOSS 2-1 (C) 2.6 22:55:39 32° SW 22:56:59 86° NW 22:59:58 10° NE
Cosmos 2322 Rocket 2.1 22:51:25 10° NNW 22:57:07 81° WSW 23:00:24 26° SSE
Cosmos 1633 Rocket 4.1 22:54:17 10° N 22:58:22 38° ENE 23:00:47 21° SE
Spot 4 4.3 22:56:43 27° SSW 22:58:59 49° W 23:03:38 10° NNW
Cosmos 1408 Rocket 4.0 22:56:16 10° NNW 23:00:30 51° W 23:02:20 30° SSW
COSMOS 2428 4.2 22:57:07 10° NNW 23:02:22 35° NE 23:07:36 10° ESE
ARIANE 5 R/B 3.8 23:01:14 22° SW 23:03:10 30° W 23:07:03 10° NNW
Cosmos 1908 3.9 23:02:41 10° NNW 23:05:40 33° W 23:06:26 29° WSW
Cosmos 1470 3.0 23:02:49 10° NNW 23:06:18 49° W 23:07:19 36° SW
Meteor 2-10 Rocket 4.2 23:01:37 10° N 23:07:16 56° ENE 23:11:09 21° SE
Cosmos 1805 Rocket 3.9 23:03:20 10° NNW 23:07:42 55° W 23:09:35 31° SSW
Cosmos 1066 Rocket 4.3 23:04:56 28° S 23:08:01 73° E 23:13:47 10° NNE
Cosmos 2278 4.4 23:08:51 10° NW 23:14:06 41° WSW 23:16:39 26° SSW
GP-B 3.0 23:10:12 10° N 23:14:36 81° E 23:16:31 33° S
Exosat Rocket 3.9 23:11:15 10° NW 23:16:09 48° WSW 23:18:24 29° SSW
Cosmos 2360 Rocket 2.2 23:11:05 10° NW 23:16:42 70° WSW 23:19:47 27° SSE
Cosmos 2173 Rocket 4.3 23:11:12 10° N 23:17:33 65° ENE 23:21:47 22° SSE
Meteor 1-18 Rocket 4.3 23:14:33 27° S 23:17:55 89° ESE 23:23:51 10° NNE
Cosmos 1758 4.4 23:18:33 10° N 23:22:06 35° ENE 23:24:08 20° SE
CENTAUR R/B 3.2 23:14:56 10° NW 23:23:00 75° SW 23:31:24 13° SSE
Spot 1 4.2 23:19:04 10° NNE 23:23:18 70° WNW 23:25:33 28° SSW
ASTEX 1 3.4 23:18:39 10° N 23:23:37 80° E 23:26:06 30° S
ATLAS 3B R/B 2.9 23:17:16 14° SW 23:23:55 85° SE 23:31:51 10° NE
USA 229 DEB 3.5 23:20:46 23° SSW 23:24:40 67° SE 23:31:28 10° NE
USA 229 3.5 23:20:54 24° SSW 23:24:46 66° SE 23:31:33 10° NE
Cosmos 1328 Rocket 4.1 23:23:10 28° SSE 23:24:57 45° E 23:29:05 10° NNE
Cosmos 1743 Rocket 4.1 23:21:38 10° NNW 23:25:56 49° W 23:27:46 30° SSW
GEOS 3 Rocket 3.8 23:22:27 10° ESE 23:27:32 70° NE 23:32:40 10° NW
Cosmos 2082 Rocket 3.6 23:25:53 10° WSW 23:31:01 35° NW 23:36:12 10° NNE
Cosmos 1842 4.3 23:36:29 22° WSW 23:37:56 31° WNW 23:41:05 10° N
Cosmos 1420 Rocket 4.4 23:35:52 10° NW 23:41:00 50° WSW 23:43:26 28° SSW
Cosmos 2112 Rocket 4.2 23:41:11 29° S 23:43:49 61° ESE 23:48:58 10° NNE
Cosmos 1455 1.4 23:43:45 10° N 23:46:35 73° ENE 23:47:02 55° SE
COSMOS 2406 4.4 23:41:53 10° WSW 23:47:14 40° NW 23:52:38 10° NNE
Cosmos 2237 Rocket 3.8 23:42:33 10° NNW 23:47:39 33° NE 23:52:44 10° ESE
Cosmos 1300 3.2 23:47:02 10° NNW 23:49:56 33° W 23:50:26 31° WSW
SL-14 R/B 3.5 23:53:45 33° SSE 23:55:16 58° E 23:59:06 10° NNE
Cosmos 1953 4.3 23:53:58 10° NNE 23:56:53 22° ENE 23:59:47 10° ESE
